DELTA 2 R/B (1) - Orbit

View from above orbital plane
View from above orbital plane
View from above satellite
View from above satellite

Ground track
Ground track

The orbit data is extracted from the following two-line orbital elements,

1 27665U 03005C   13144.48364789  .00000176  00000-0  10411-3 0  7617
2 27665 039.5757 108.2200 0007845 335.6616 114.9877 14.28047418538609
Epoch (UTC): 24 May 2013 11:36:27
Eccentricity: 0.0007845
inclination: 39.5757°
perigee height: 792 km
apogee height: 804 km
right ascension of ascending node: 108.2200°
argument of perigee: 335.6616°
revolutions per day: 14.28047418
mean anomaly at epoch: 114.9877°
orbit number at epoch: 53860

The dashed part of the orbit path shows where the satellite is in the earth's shadow,  

Developed and maintained by Chris Peat, Heavens-Above GmbH. Please read the updated FAQ before sending e-mail. Imprint. DLR